Location: Canazei
(46.4667°N, 11.7667°E)
Time: 17:21:49
(UTC+00:00)

IDEFIX/ARIANE 42P - Pass Details

Date: 21 April 2021
Orbit: 785 x 802 km, 98.4° (Epoch: 11 May)

Event Time Altitude Azimuth Distance (km) Brightness Sun altitude
Rises 01:49:19 0° 16° (NNE) 3,297 6.9 -21.8°
Reaches altitude 10° 01:51:41 10° 20° (NNE) 2,366 6.0 -21.5°
Maximum altitude 01:56:52 63° 102° (ESE) 884 2.9 -20.9°
Enters shadow 01:59:38 28° 175° (S) 1,467 3.6 -20.6°
